Regional Weather Roundup
Issued by NWS Northern Indiana

Home | Current Version | Previous Version | Text Only | Print | Product List | Glossary Off
Versions: 1 2 3 4 5 6 7 8 9 10 11 12 13 14 15 16 17 18 19 20 21 22 23 24 25 26 27 28 29 30 31 32 33 34 35 36 37 38 39 40 41 42 43 44 45 46 47 48 49 50

520
ASUS43 KIWX 281601
RWRIWX

KIWX WEATHER ROUNDUP
NATIONAL WEATHER SERVICE NORTHERN INDIANA
1200 PM EDT SUN MAY 28 2017

NOTE: "FAIR" INDICATES FEW OR NO CLOUDS BELOW 12,000 FEET WITH NO
SIGNIFICANT WEATHER AND/OR OBSTRUCTIONS TO VISIBILITY.

* THESE STATIONS ARE NOT UNDER NWS QUALITY CONTROL. THEY ALSO MAY NOT
  REPORT WEATHER SUCH AS PRECIPITATION OR FOG.

INZ001>027-281700-
NORTHERN INDIANA

CITY           SKY/WX    TMP DP  RH WIND       PRES   REMARKS
GARY*          PTSUNNY   70  61  73 N5        29.74R HAZE
MICHIGAN CITY* CLOUDY    68  61  77 NW9       29.74R
SOUTH BEND     MOSUNNY   73  64  73 VRB6      29.72F
ELKHART*       SUNNY     73  61  64 CALM      29.73S
GOSHEN         PTSUNNY   74  62  66 SE3       29.73S
MONTICELLO*    CLOUDY    70  66  86 SW7       29.73S
FORT WAYNE     PTSUNNY   73  65  75 VRB3      29.73S
PERU/GRISSOM   CLOUDY    70  69  95 SW8       29.73R

$$
INZ028>050-281700-
CENTRAL INDIANA

CITY           SKY/WX    TMP DP  RH WIND       PRES   REMARKS
LAFAYETTE      CLOUDY    72  66  81 SW7       29.73R
KOKOMO*        CLOUDY    70  64  81 SW13      29.75R
MUNCIE*        CLOUDY    72  62  71 SW10G18   29.75R
INDIANAPOLIS   PTSUNNY   72  62  71 SW14G23   29.76S

$$
MIZ043>046-050>051-056>058-064>065-071>073-077>080-281700-
SOUTHWEST LOWER MICHIGAN

CITY           SKY/WX    TMP DP  RH WIND       PRES   REMARKS
BATTLE CREEK   MOSUNNY   73  62  68 VRB6      29.73F
BENTON HARBOR  CLOUDY    71  59  65 NW6       29.73S
COLDWATER*     PTSUNNY   72  65  76 CALM      29.74F
HILLSDALE*     CLOUDY    70  61  73 CALM      29.74S
HOLLAND        PTSUNNY   75  59  57 SW7       29.73F
GRAND RAPIDS   PTSUNNY   74  56  53 SE5       29.73F
KALAMAZOO      PTSUNNY   73  60  63 S5        29.73F
STURGIS*       MOSUNNY   71  63  73 SE7       29.73F
THREE RIVERS*  PTSUNNY   72  61  69 SE5       29.73F

$$
OHZ001>008-015>018-024>025-281700-
NORTHWEST OHIO

CITY           SKY/WX    TMP DP  RH WIND       PRES   REMARKS
DEFIANCE       CLOUDY    71  64  78 VRB5      29.74S
FINDLAY        CLOUDY    71  65  81 S10       29.73F HAZE
TOLEDO EXPRESS CLOUDY    72  65  78 VRB7      29.73F
TOLEDO METCALF CLOUDY    75  66  73 SE5       29.73F
LIMA           CLOUDY    69  66  90 S8        29.75R

$$
AND FOR LAKE MICHIGAN COASTAL AND OPEN LAKE BUOY OBSERVATIONS

STATION/POSITION TEMP    WIND        PRES    VSBY  WAVE
                 AIR SEA DIR/SP/G                  HT/PER
                 (F)     (DEG/KT/KT) (MB)    (MI)  (FT/S)
CALUMET HARBOR    63     340/  5/  7 1006.5R
MICHIGAN CITY     59     320/ 16/ 18   N/A
BURNS HARBOR      57     340/  8/ 11 1007.5S
SOUTH LAKE BUOY   53 51  330/  4/  4 1008.0          0
4 MI NW BRIDGMAN  60 60  350/  8/  8 1007.1R         0
MICHIGAN CITY     56 56  340/  8/ 10   N/A           0

$$
&&




USA.gov is the U.S. government's official web portal to all federal, state and local government web resources and services.